Regional Weather Roundup
Issued by NWS

Home | Current Version | Previous Version | Text Only | Print | Product List | Glossary Off
Versions: 1 2 3 4 5 6 7 8 9 10 11 12 13 14 15 16 17 18 19 20 21 22 23 24 25 26

000
ASUS45 KSLC 230010
RWRUT

UTAH REGIONAL WEATHER ROUNDUP
NATIONAL WEATHER SERVICE SALT LAKE CITY UT
600 PM MDT THU JUN 22 2017

UTZ001>011-023>025-230100-

NORTHERN UTAH

CITY           SKY/WX    TMP DP  RH WIND       PRES   REMARKS
BRIGHAM CITY   SUNNY     83  27  12 S6        30.01S
HILL AFB       SUNNY     81  30  15 CALM      30.04F
LOGAN          SUNNY     84  41  21 N6        30.01S
OGDEN          SUNNY     83  32  16 VRB3      30.01F
SALT LAKE CITY SUNNY     86  28  12 W13       29.99F
TOOELE VALLEY  SUNNY     82  36  18 NE9       30.02S
WENDOVER         N/A     89  30  12 E10       29.99F
HEBER CITY     SUNNY     86  28  12 W10       30.03S
WEST JORDAN    SUNNY     83  47  28 NW16G22   30.03F

$$

UTZ011>015-024>027-230100-

CENTRAL/NORTHEAST UTAH

CITY           SKY/WX    TMP DP  RH WIND       PRES   REMARKS
PROVO AIRPORT  SUNNY     85  43  22 NW15      30.00F
MOAB/CANYONLAN MOSUNNY  101  27   7 NW17G29   29.80F HX  94
DELTA          SUNNY     90  21   8 NW13      29.99F
PRICE          SUNNY     90  34  13 NW16G28   30.01S
ROOSEVELT      SUNNY     91  28  10 W24G33    29.92F
VERNAL         SUNNY     95  29   9 NW12G32   29.88S

$$

UTZ013>016-019>022-027-230100-

SOUTHERN UTAH

CITY           SKY/WX    TMP DP  RH WIND       PRES   REMARKS
BRYCE CANYON   MOSUNNY   79  25  13 W8        30.20F
CEDAR CITY     SUNNY     94  31  10 N13       30.01F
MILFORD        SUNNY     95  30  10 N12G21    29.98F
ST GEORGE      CLEAR    108  21   4 SW22      29.73F HX  99
HANKSVILLE     MOSUNNY  100  32   9 N21G29    29.85S HX  94
BLANDING       MOSUNNY   96  22   7 W9G18     30.00F

$$

REGIONAL REPORTS     COLORADO/ARIZONA

CITY           SKY/WX    TMP DP  RH WIND       PRES   REMARKS
CRAIG, CO      CLOUDY    89  23   9 NW16G25   29.95F
GRAND JUNCTION MOSUNNY   93  32  11 NW12      29.87S
RIFLE, CO      CLOUDY    84  34  16 SW16G26   29.96F
MONTROSE, CO   SUNNY     91  29  11 NW18G26   29.93R
CORTEZ, CO     SUNNY     95  13   5 W15G23    29.94F
COLORADO CITY    N/A    102  19   5 W15G23    29.96F HX  94
PAGE, AZ       SUNNY    105  13   3 NW15G31   29.83F HX  96
GRAND CANYON   SUNNY     92  15   6 W13G31    30.11S
KINGMAN, AZ    SUNNY    105  35   9 SW20G30   29.86F HX  99
FLAGSTAFF, AZ  SUNNY     89  23   9 W13G22    30.14F

$$

REGIONAL REPORTS    NEVADA/IDAHO/WYOMING

CITY           SKY/WX    TMP DP  RH WIND       PRES   REMARKS
LAS VEGAS, NV  MOSUNNY  113 -10   1 W18G24    29.68F HX 102
ELY, NY        SUNNY     90  34  13 W9G23     30.10S
ELKO, NV       SUNNY     87  27  11 N14G20    30.08F
POCATELLO, ID  SUNNY     78  30  17 SW20      30.06F
BURLEY, ID     SUNNY     76  30  18 W14G25    30.04F
FORT BRIDGER,    N/A     79  22  12 NW21G28   30.16S
EVANSTON, WY   SUNNY     73  34  23 W15       30.16S
ROCK SPRINGS,  SUNNY     78  17  10 W28G37    30.06R
KEMMERER, WY     N/A    N/A N/A N/A W21G28    30.16S

$$




USA.gov is the U.S. government's official web portal to all federal, state and local government web resources and services.